AirNav   Everest Fuels
 
 970 users online  

PA87 TEK Park Breinigsville Heliport
Breinigsville, Pennsylvania, USA

GOING TO BREINIGSVILLE?


FAA INFORMATION EFFECTIVE 18 JUNE 2020

Location

FAA Identifier: PA87
Lat/Long: 40-32-46.3440N 075-39-43.6820W
40-32.772400N 075-39.728033W
40.5462067,-75.6621339
(estimated)
Elevation: 460 ft. / 140 m (estimated)
Variation: 08W (1985)
From city: 1 mile SE of BREINIGSVILLE, PA
Time zone: UTC -4 (UTC -5 during Standard Time)
Zip code: 18031

Heliport Operations

Heliport use: Private use. Permission required prior to landing
Activation date: 07/1989
Control tower: no
ARTCC: NEW YORK CENTER
FSS: WILLIAMSPORT FLIGHT SERVICE STATION
Attendance: CONTINUOUS
Wind indicator: yes
Segmented circle: yes

Heliport Communications

WX AWOS-3 at XLL (8 nm E): 127.875 (610-231-3111)
WX ASOS at ABE (12 nm NE): 126.975 (610-266-3579)
WX AWOS-3 at UKT (14 nm SE): 119.475 (215-538-7610)
WX AWOS-3PT at 22N (16 nm N): 119.350 (570-386-3423)
WX ASOS at RDG (17 nm SW): 127.1 (610-372-9863)
WX ASOS at PTW (19 nm S): 119.425 (610-495-0823)
WX AWOS-3 at CKZ (19 nm SE): 126.325 (215-257-7291)

Nearby radio navigation aids

VOR radial/distance  VOR name  Freq  Var
ETXr163/2.3EAST TEXAS VOR/DME110.2009W
FJCr231/14.4ALLENTOWN VORTAC117.5010W
PTWr356/20.0POTTSTOWN VORTAC116.5009W
MXEr010/37.7MODENA VORTAC113.2009W
LRPr057/38.5LANCASTER VOR/DME117.3009W
ARDr307/38.7YARDLEY VOR/DME108.2010W

 
NDB name  Hdg/Dist  Freq  Var  ID
AMBLER338/30.527512WING .. -. --.

Heliport Services

Runway Information

Helipad H1

Dimensions: 100 x 100 ft. / 30 x 30 m
Surface: asphalt
Traffic pattern: leftleft

Heliport Ownership and Management from official FAA records

Ownership: Privately-owned
Owner: HAMILTON 9999 ASSOCIATES, LP
9999 HAMILTON BLVD
BREINIGSVILLE, PA 18031
Phone (484) 397-4021
Manager: ROD STROHM, DIRECTOR OF OPERATIONS
9999 HAMILTON BLVD
BREINIGEVILLE, PA 18031
Phone (484) 397-4021

Additional Remarks

FOR CD CTC ALLENTOWN APCH AT 800-728-6322.

Instrument Procedures

There are no published instrument procedures at PA87.

Some nearby airports with instrument procedures:

KXLL - Allentown Queen City Municipal Airport (8 nm E)
KABE - Lehigh Valley International Airport (12 nm NE)
KUKT - Quakertown Airport (14 nm SE)
22N - Jake Arner Memorial Airport (16 nm N)
KRDG - Reading Regional Airport/Carl A Spaatz Field (17 nm SW)
N47 - Pottstown Municipal Airport (17 nm S)
KPTW - Heritage Field Airport (19 nm S)
KCKZ - Pennridge Airport (19 nm SE)
 
Loc | Ops | Rwys | IFR | FBO | Links
Com | Nav | Svcs | Stats | Notes
Area around PA87 (TEK Park Breinigsville Heliport)
 
Road maps at: MapQuest Bing Google
 
Aerial photo
WARNING: Photo may not be current or correct
Aerial photo of PA87 (TEK Park Breinigsville Heliport)
Photo taken 14-Feb-2012
looking East from 2500'.

Do you have a better or more recent aerial photo of TEK Park Breinigsville Heliport that you would like to share? If so, please send us your photo.

 
Sectional chart

 
Airport distance calculator
Flying to TEK Park Breinigsville Heliport? Find the distance to fly.

From to PA87

Sunrise and sunset
Times for 07-Jul-2020
 Local
(UTC-4)
 Zulu
(UTC)
Morning civil twilight05:0809:08
Sunrise05:4109:41
Sunset20:3500:35
Evening civil twilight21:0701:07

Current date and time
Zulu (UTC)  08-Jul-2020 00:42:06
Local (UTC-4)  07-Jul-2020 20:42:06
 
METAR
KXLL 
8nm E 
080015Z AUTO 22004KT 10SM CLR 27/21 A3002 RMK AO2
KABE 
11nm NE 
072351Z 22005KT 10SM CLR 29/20 A3001 RMK AO2 SLP161 T02890200 10306 20278 55005
KUKT 
14nm SE 
080015Z AUTO 00000KT 10SM CLR 29/22 A3003 RMK A01
K22N 
16nm N 
080016Z AUTO 00000KT 10SM CLR 26/21 A3003 RMK AO2
KRDG 
18nm SW 
072354Z AUTO A3000 RMK AO2 SLPNO 56007 PWINO $
KCKZ 
19nm SE 
080015Z AUTO 00000KT 10SM BKN038 BKN046 OVC060 28/22 A3004 RMK AO2
KPTW 
19nm S 
072354Z AUTO 22003KT 8SM BKN037 28/21 A3003 RMK AO2 SLP164 T02780211 10294 20278 $
TAF
KABE 
11nm NE 
071739Z 0718/0818 VRB04KT P6SM FEW035 FM071900 15005KT P6SM BKN060 FM080100 VRB03KT P6SM BKN060 FM080800 VRB05KT P6SM BKN025 FM081600 VRB04KT P6SM BKN035
KRDG 
18nm SW 
071739Z 0718/0818 VRB03KT P6SM BKN040 FM071900 17006KT P6SM BKN060 FM080100 VRB03KT P6SM SCT060 FM080800 VRB03KT P6SM BKN030 FM081600 18005KT P6SM BKN035 AMD NOT SKED
NOTAMs
Click for the latest NOTAMs
NOTAMs are issued by the DoD/FAA and will open in a separate window not controlled by AirNav.

 

 
 

Would you like to see your business listed on this page?

 If your business provides an interesting product or service to pilots, flight crews, aircraft, or users of the TEK Park Breinigsville Heliport, you should consider listing it here.  To start the listing process, click on the button below
 
Add a business
 

Other Pages about TEK Park Breinigsville Heliport

Update a link
 
Copyright © AirNav, LLC. All rights reserved. Privacy Policy  Contact